Location: Ash Shall?l al Awwal
(24.0167°N, 32.8667°E)
Time: 03:23:49
(UTC+00:00)

Meteor 2-4 Rocket - Pass Details

Date: 02 March 2021
Orbit: 799 x 908 km, 81.2° (Epoch: 12 April)

Event Time Altitude Azimuth Distance (km) Brightness Sun altitude
Rises 17:21:14 0° 356° (N) 3,504 7.0 -21.2°
Reaches altitude 10° 17:23:42 10° 359° (N) 2,572 6.2 -21.8°
Maximum altitude 17:29:34 71° 83° (E) 954 3.7 -23.1°
Drops below altitude 10° 17:35:27 10° 167° (SSE) 2,581 6.1 -24.4°
Sets 17:37:55 0° 169° (S) 3,516 6.8 -25.0°
